Starlink 34342

operational
NORAD ID: 64271 Int'l Des: 2025-120 Owner: SPXS Country: US Constellation: starlink
LEOCIRCULAR

关于 Starlink 34342

正在加载描述...

实时位置

正在加载3D地球...

即将过境

高度历史

Altitude vs Time

uPlot chart will show altitude changes over time

两行轨道根数

1 64271U 25120R 25307.81879465 .00030148 00000-0 10256-2 0 9997
2 64271 53.1604 341.4329 0001624 85.1709 274.9477 15.30209939 24591
Epoch: Nov 3, 2025 • Age: 5 hours

当前状态

高度 480.2 km
速度 7.63 km/s
星下点 51.35°N, 36.18°E
发射日期 Jun 4, 2025
运行时间 0.4 years
类型 internet

技术详情

分类 Payload
质量 575.00 kg
干质量 530.00 kg
总质量 575.00 kg
长度 0.30 m
直径 4.10 m
跨度 29.00 m
形状 Box + pan
制造商 SPXS
平台类型 Starlink V2MO
阶段状态 In Orbit
所有者/国家 SPXS/US

大型星座

Loading constellations...